"TOA5","MOW","CPU:UNC_MeetingWaters","DataHourly"
"TIMESTAMP","SondeTempC","SpCond","DOSat","DOmg","pH","Turb","BattVolt_Min"
"TS","","","","","","",""
"","Smp","Smp","Smp","Smp","Smp","Smp","Min"
"2004-05-01 00:00:00",17.5599994659,0.0,97.5,9.31000041962,5.86000013351,2.09999990463,12.5799999237
"2004-05-01 01:00:00",17.3999996185,0.0,97.5,9.34000015259,5.88000011444,12.3000001907,12.5600004196
"2004-05-01 02:00:00",16.8899993896,0.0,97.5,9.44999980927,5.96000003815,1.39999997616,12.5500001907
"2004-05-01 03:00:00",16.7000007629,0.0,97.5,9.47999954224,6.05999994278,0.5,12.529999733
"2004-05-01 04:00:00",16.8899993896,0.0,97.3000030518,9.43000030518,6.07999992371,0.0,12.5
"2004-05-01 05:00:00",16.9500007629,0.0,97.1999969482,9.40999984741,6.09000015259,3.79999995232,12.4899997711
"2004-05-01 06:00:00",17.0,0.0,97.1999969482,9.39000034332,6.11999988556,-0.10000000149,12.470000267
"2004-05-01 07:00:00",17.0599994659,0.0,97.0999984741,9.38000011444,6.05000019073,-0.20000000298,12.4499998093
"2004-05-01 08:00:00",17.2099990845,0.0,97.0999984741,9.34000015259,6.13999986649,-0.300000011921,12.4499998093
"2004-05-01 09:00:00",17.9400005341,0.0,97.0,9.18999958038,6.23000001907,-0.20000000298,12.5399999619
"2004-05-01 10:00:00",18.7199993134,0.0,96.9000015259,9.03999996185,6.17000007629,0.40000000596,12.6499996185
"2004-05-01 11:00:00",18.4500007629,0.0,96.8000030518,9.07999992371,5.76999998093,0.300000011921,12.5200004578
"2004-05-01 12:00:00",18.3700008392,0.0,96.6999969482,9.09000015259,6.44000005722,0.0,12.4899997711
"2004-05-01 13:00:00",18.5100002289,0.0,92.3000030518,8.64999961853,6.53000020981,0.300000011921,12.8100004196
"2004-05-01 14:00:00",18.3799991608,0.0,96.0,9.02000045776,7.19999980927,0.600000023842,12.8699998856
"2004-05-01 15:00:00",18.9099998474,0.0,96.0,8.93000030518,6.73999977112,1.60000002384,12.7299995422
"2004-05-01 16:00:00",20.6499996185,0.105999998748,89.3000030518,8.02000045776,8.76000022888,594.599975586,12.6499996185
"2004-05-01 17:00:00",21.3299999237,0.0509999990463,90.6999969482,8.03999996185,8.96000003815,917.0,12.6199998856
"2004-05-01 18:00:00",21.0200004578,0.070000000298,89.1999969482,7.94999980927,8.72000026703,709.0,12.6499996185
"2004-05-01 19:00:00",20.8799991608,0.125,88.4000015259,7.90000009537,8.35999965668,251.5,12.5900001526
"2004-05-01 20:00:00",20.7800006866,0.0930000022054,91.1999969482,8.15999984741,8.35000038147,477.100006104,12.5500001907
"2004-05-01 21:00:00",20.5900001526,0.0900000035763,87.3000030518,7.84999990463,8.14999961853,913.0,12.5100002289
"2004-05-01 22:00:00",20.1399993896,0.142000004649,84.6999969482,7.67000007629,7.94000005722,317.899993896,12.470000267
"2004-05-01 23:00:00",19.7800006866,0.20000000298,85.3000030518,7.78999996185,7.84999990463,185.800003052,12.4499998093
"2004-05-02 00:00:00",19.5,0.22499999404,85.8000030518,7.88000011444,7.88999986649,100.099998474,12.4499998093
"2004-05-02 01:00:00",19.3099994659,0.21400000155,84.0,7.73999977112,7.98000001907,93.3000030518,12.4499998093
"2004-05-02 02:00:00",19.1700000763,0.123999997973,82.9000015259,7.65999984741,7.98999977112,62.5999984741,12.4399995804
"2004-05-02 03:00:00",19.0400009155,0.112999998033,82.6999969482,7.65999984741,7.96999979019,52.2000007629,12.4300003052
"2004-05-02 04:00:00",18.9099998474,0.111000001431,82.0999984741,7.63000011444,7.96000003815,42.7999992371,12.4300003052
"2004-05-02 05:00:00",18.7999992371,0.00200000009499,82.5999984741,7.69999980927,7.96999979019,37.2000007629,12.4300003052
"2004-05-02 06:00:00",18.7000007629,0.00200000009499,82.1999969482,7.67000007629,7.98000001907,33.7000007629,12.4300003052
"2004-05-02 07:00:00",18.6200008392,0.00200000009499,82.5999984741,7.71999979019,7.98999977112,28.0,12.4200000763
"2004-05-02 08:00:00",18.6299991608,0.00200000009499,83.0,7.76000022888,8.02000045776,23.5,12.4200000763
"2004-05-02 09:00:00",18.6800003052,0.00200000009499,83.5999984741,7.80999994278,8.09000015259,22.3999996185,12.4499998093
"2004-05-02 10:00:00",19.2600002289,0.268999993801,88.5999984741,8.17000007629,8.21000003815,195.199996948,12.470000267
"2004-05-02 11:00:00",19.8500003815,0.109999999404,88.0,8.02999973297,8.35000038147,183.300003052,12.9399995804
"2004-05-02 12:00:00",20.0799999237,0.103000000119,86.6999969482,7.86999988556,8.17000007629,124.800003052,12.970000267
"2004-05-02 13:00:00",20.2600002289,0.0619999989867,86.3000030518,7.80999994278,8.09000015259,93.8000030518,12.9899997711
"2004-05-02 14:00:00",20.4699993134,0.00700000021607,86.8000030518,7.82000017166,8.01000022888,74.3000030518,12.970000267
"2004-05-02 15:00:00",20.5799999237,0.00200000009499,86.6999969482,7.78999996185,7.96999979019,60.4000015259,13.1000003815
"2004-05-02 16:00:00",23.2900009155,0.0869999974966,86.6999969482,7.40000009537,8.17000007629,193.100006104,12.720000267
"2004-05-02 17:00:00",23.0699996948,0.0710000023246,88.5,7.57999992371,8.11999988556,1418.0,12.6899995804
"2004-05-02 18:00:00",21.3099994659,0.0540000014007,93.3000030518,8.27000045776,7.78000020981,1416.0,12.6400003433
"2004-05-02 19:00:00",20.4500007629,0.112999998033,90.6999969482,8.18000030518,7.51999998093,1395.0,12.6000003815
"2004-05-02 20:00:00",20.3299999237,0.138999998569,91.6999969482,8.27999973297,7.53999996185,914.0,12.6000003815
"2004-05-02 21:00:00",20.1499996185,0.0989999994636,91.6999969482,8.31000041962,7.65999984741,845.0,12.5799999237
"2004-05-02 22:00:00",19.7399997711,0.138999998569,90.0999984741,8.22999954224,7.55000019073,559.700012207,12.5799999237
"2004-05-02 23:00:00",19.3299999237,0.186000004411,88.6999969482,8.17000007629,7.55000019073,551.700012207,12.5699996948
"2004-05-03 00:00:00",19.0499992371,0.21400000155,88.5,8.19999980927,7.61999988556,386.700012207,12.5600004196
"2004-05-03 01:00:00",18.8099994659,0.236000001431,88.4000015259,8.22000026703,7.67000007629,422.899993896,12.5399999619
"2004-05-03 02:00:00",18.6100006104,0.243000000715,88.1999969482,8.23999977112,7.73999977112,206.0,12.5399999619
"2004-05-03 03:00:00",18.2299995422,0.268999993801,90.1999969482,8.48999977112,7.76000022888,404.200012207,12.5200004578
"2004-05-03 04:00:00",18.0699996948,0.218999996781,87.9000015259,8.31000041962,7.94000005722,204.899993896,12.4899997711
"2004-05-03 05:00:00",17.7700004578,0.202999994159,88.9000015259,8.44999980927,7.88999986649,149.5,12.4600000381
"2004-05-03 06:00:00",17.4699993134,0.195999994874,88.0,8.42000007629,7.90999984741,186.0,12.4499998093
"2004-05-03 07:00:00",17.2000007629,0.175999999046,86.4000015259,8.31999969482,7.90000009537,103.800003052,12.4399995804
"2004-05-03 08:00:00",16.9099998474,0.181999996305,86.8000030518,8.39999961853,7.84000015259,78.0,12.4099998474
"2004-05-03 09:00:00",16.6499996185,0.201000005007,87.5999984741,8.52000045776,7.76999998093,70.5999984741,12.3999996185
"2004-05-03 10:00:00",16.4599990845,0.218999996781,88.3000030518,8.63000011444,7.78000020981,64.9000015259,12.3900003433
"2004-05-03 11:00:00",16.3199996948,0.238000005484,89.0,8.72000026703,7.82000017166,264.299987793,12.4399995804
"2004-05-03 12:00:00",16.2600002289,0.254999995232,89.6999969482,8.80000019073,7.86999988556,312.399993896,12.5600004196
"2004-05-03 13:00:00",16.3099994659,0.256000012159,90.0,8.81000041962,7.94999980927,388.0,12.75
"2004-05-03 14:00:00",16.3600006104,0.261000007391,87.8000030518,8.60000038147,7.98999977112,569.400024414,12.6899995804
"2004-05-03 15:00:00",16.4400005341,0.246000006795,89.4000015259,8.73999977112,8.02999973297,804.0,12.6999998093
"2004-05-03 16:00:00",16.4899997711,0.245000004768,88.5,8.64000034332,8.06000041962,867.0,12.6199998856
"2004-05-03 17:00:00",16.5,0.240999996662,86.0999984741,8.39999961853,8.06000041962,372.200012207,12.6300001144
"2004-05-03 18:00:00",16.3299999237,0.216000005603,85.8000030518,8.39999961853,8.01000022888,286.299987793,12.470000267
"2004-05-03 19:00:00",16.4500007629,0.223000004888,88.1999969482,8.61999988556,8.05000019073,374.200012207,12.3999996185
"2004-05-03 20:00:00",16.2399997711,0.192000001669,87.0999984741,8.55000019073,8.02000045776,208.399993896,12.3599996567
"2004-05-03 21:00:00",15.970000267,0.175999999046,86.0999984741,8.5,7.96999979019,149.600006104,12.3400001526
"2004-05-03 22:00:00",15.6599998474,0.159999996424,86.0999984741,8.56000041962,7.88999986649,124.900001526,12.3400001526
"2004-05-03 23:00:00",15.3500003815,0.101999998093,86.3000030518,8.63000011444,7.82999992371,100.699996948,12.3199996948
"2004-05-04 00:00:00",15.029999733,0.097999997437,86.6999969482,8.72999954224,7.80000019073,85.0,12.3199996948
"2004-05-04 01:00:00",14.6400003433,0.104000002146,86.5999984741,8.80000019073,7.78999996185,68.5,12.3100004196
"2004-05-04 02:00:00",14.2299995422,0.105999998748,87.0999984741,8.93000030518,7.76999998093,55.0999984741,12.3000001907
"2004-05-04 03:00:00",14.0900001526,0.111000001431,87.5999984741,9.01000022888,7.78000020981,50.4000015259,12.2899999619
"2004-05-04 04:00:00",13.6499996185,0.115999996662,88.1999969482,9.14999961853,7.80999994278,39.9000015259,12.279999733
"2004-05-04 05:00:00",13.3599996567,0.123000003397,88.3000030518,9.22999954224,7.84000015259,35.4000015259,12.2700004578
"2004-05-04 06:00:00",13.1300001144,0.129999995232,88.5999984741,9.30000019073,7.86999988556,31.8999996185,12.2600002289
"2004-05-04 07:00:00",12.8199996948,0.135000005364,89.5,9.46000003815,7.90999984741,30.1000003815,12.2600002289
"2004-05-04 08:00:00",12.7399997711,0.136999994516,90.0999984741,9.55000019073,7.94999980927,29.2000007629,12.2600002289
"2004-05-04 09:00:00",12.7399997711,0.137999996543,91.0,9.64000034332,7.92000007629,27.7000007629,12.3599996567
"2004-05-04 10:00:00",12.9799995422,0.144999995828,92.1999969482,9.72000026703,8.03999996185,36.0,12.8900003433
"2004-05-04 11:00:00",13.8299999237,0.149000003934,94.0999984741,9.72999954224,8.02999973297,31.6000003815,13.3800001144
"2004-05-04 12:00:00",14.779999733,0.146999999881,95.0,9.63000011444,8.10000038147,29.1000003815,13.3100004196
"2004-05-04 13:00:00",15.0799999237,0.152999997139,94.8000030518,9.53999996185,8.10000038147,29.1000003815,13.2899999619
"2004-05-04 14:00:00",16.0400009155,0.158999994397,96.4000015259,9.51000022888,8.10999965668,52.7000007629,13.279999733
"2004-05-04 15:00:00",16.4899997711,0.00400000018999,96.0999984741,9.39000034332,8.11999988556,72.4000015259,13.0600004196
"2004-05-04 16:00:00",16.3799991608,0.00200000009499,95.1999969482,9.31999969482,8.09000015259,87.4000015259,12.8999996185
"2004-05-04 17:00:00",15.8199996948,0.00200000009499,90.0999984741,8.93000030518,8.11999988556,107.699996948,12.8699998856
"2004-05-04 18:00:00",15.6599998474,0.00200000009499,88.9000015259,8.84000015259,8.10999965668,117.900001526,12.7100000381
"2004-05-04 19:00:00",15.4799995422,0.00200000009499,88.5999984741,8.85000038147,8.10999965668,106.0,12.6599998474
"2004-05-04 20:00:00",15.3000001907,0.00200000009499,87.6999969482,8.78999996185,8.09000015259,81.0,12.6199998856
"2004-05-04 21:00:00",15.0,0.00200000009499,87.8000030518,8.85000038147,8.14999961853,63.0999984741,12.6000003815
"2004-05-04 22:00:00",14.6700000763,0.00200000009499,88.0,8.93000030518,8.17000007629,60.0999984741,12.5699996948
"2004-05-04 23:00:00",14.2700004578,0.00200000009499,88.5,9.06999969482,8.19999980927,56.7000007629,12.5500001907
"2004-05-05 00:00:00",13.8900003433,0.00200000009499,88.8000030518,9.17000007629,8.22999954224,47.7999992371,12.5399999619
"2004-05-05 01:00:00",13.7899999619,0.00200000009499,89.5,9.27000045776,8.26000022888,47.7000007629,12.5200004578
"2004-05-05 02:00:00",13.5200004578,0.00200000009499,89.3000030518,9.30000019073,8.25,46.7000007629,12.5100002289
"2004-05-05 03:00:00",12.75,0.00200000009499,87.8000030518,9.30000019073,8.27999973297,52.0,12.4899997711
"2004-05-05 04:00:00",12.2700004578,0.00200000009499,88.5,9.47999954224,8.30000019073,54.2000007629,12.4899997711
"2004-05-05 05:00:00",11.75,0.00200000009499,87.5,9.47999954224,8.32999992371,48.4000015259,12.470000267
"2004-05-05 06:00:00",11.6400003433,0.00200000009499,88.0999984741,9.56999969482,8.31000041962,40.5,12.470000267
"2004-05-05 07:00:00",11.7899999619,0.00200000009499,90.5999984741,9.81000041962,8.32999992371,30.6000003815,12.4600000381
"2004-05-05 08:00:00",12.0,0.00200000009499,91.0999984741,9.81999969482,8.42000007629,26.6000003815,12.470000267
"2004-05-05 09:00:00",12.4099998474,0.00200000009499,93.8000030518,10.0100002289,8.44999980927,25.8999996185,12.6999998093
"2004-05-05 10:00:00",13.279999733,0.00200000009499,97.0999984741,10.1700000763,8.56999969482,22.7999992371,12.8900003433
"2004-05-05 11:00:00",14.6599998474,0.0010000000475,97.5,9.90999984741,8.46000003815,22.2000007629,13.3100004196
"2004-05-05 12:00:00",16.1900005341,0.00200000009499,100.5,9.88000011444,8.43000030518,21.7000007629,13.220000267
"2004-05-05 13:00:00",17.7099990845,0.0010000000475,104.099998474,9.92000007629,8.43999958038,19.2999992371,13.1800003052
"2004-05-05 14:00:00",18.1599998474,0.0010000000475,107.300003052,10.1300001144,8.44999980927,21.1000003815,13.1499996185
"2004-05-05 15:00:00",18.3600006104,0.0,106.599998474,10.0200004578,8.47999954224,26.2000007629,13.1300001144
"2004-05-05 16:00:00",18.5699996948,0.0,100.099998474,9.35999965668,8.42000007629,29.1000003815,12.9799995422
"2004-05-05 17:00:00",17.8099994659,0.0,93.0999984741,8.85000038147,8.40999984741,39.7999992371,12.8599996567
"2004-05-05 18:00:00",17.6100006104,0.0,91.8000030518,8.76000022888,8.40999984741,93.1999969482,12.7100000381
"2004-05-05 19:00:00",17.4200000763,0.0010000000475,88.5999984741,8.48999977112,8.52999973297,177.5,12.6599998474
"2004-05-05 20:00:00",17.0699996948,0.0010000000475,88.9000015259,8.57999992371,8.68999958038,267.5,12.6400003433
"2004-05-05 21:00:00",16.5699996948,0.0010000000475,88.6999969482,8.64999961853,8.73999977112,253.300003052,12.6199998856
"2004-05-05 22:00:00",16.3899993896,0.0010000000475,88.1999969482,8.64000034332,8.80000019073,221.0,12.6000003815
"2004-05-05 23:00:00",15.9899997711,0.0010000000475,88.5999984741,8.73999977112,8.90999984741,196.600006104,12.5799999237
"2004-05-06 00:00:00",16.2000007629,0.0010000000475,88.8000030518,8.72999954224,8.53999996185,151.399993896,12.5600004196
"2004-05-06 01:00:00",15.6000003815,0.0010000000475,89.8000030518,8.93999958038,8.84000015259,127.800003052,12.5399999619
"2004-05-06 02:00:00",15.3699998856,0.0010000000475,89.5,8.94999980927,8.94999980927,99.1999969482,12.529999733
"2004-05-06 03:00:00",14.9600000381,0.0010000000475,88.0,8.88000011444,9.10999965668,84.4000015259,12.5200004578
"2004-05-06 04:00:00",14.4600000381,0.0010000000475,89.0,9.09000015259,9.23999977112,73.1999969482,12.5
"2004-05-06 05:00:00",13.9799995422,0.0010000000475,87.5,9.02000045776,9.06000041962,57.4000015259,12.4899997711
"2004-05-06 06:00:00",14.7399997711,0.0010000000475,89.1999969482,9.05000019073,8.53999996185,41.5999984741,12.4799995422
"2004-05-06 07:00:00",15.0200004578,0.00200000009499,90.0999984741,9.07999992371,8.55000019073,43.7999992371,12.4600000381
"2004-05-06 08:00:00",14.8000001907,0.0010000000475,90.5999984741,9.18000030518,8.53999996185,36.0,12.4600000381
"2004-05-06 09:00:00",14.9200000763,0.00200000009499,91.3000030518,9.22000026703,8.81000041962,81.1999969482,12.5100002289
"2004-05-06 10:00:00",16.7999992371,0.00200000009499,97.0999984741,9.42000007629,9.10999965668,42.0999984741,12.9899997711
"2004-05-06 11:00:00",17.5900001526,0.0010000000475,97.4000015259,9.30000019073,9.03999996185,38.0999984741,13.1800003052
"2004-05-06 12:00:00",20.5499992371,0.0,106.300003052,9.56000041962,8.92000007629,31.2999992371,13.0900001526
"2004-05-06 13:00:00",21.2600002289,0.0,116.400001526,10.3199996948,9.02999973297,26.6000003815,13.0500001907
"2004-05-06 14:00:00",21.6800003052,0.0,112.300003052,9.88000011444,8.64000034332,25.3999996185,13.029999733
"2004-05-06 15:00:00",21.6700000763,0.0,111.199996948,9.78999996185,8.67000007629,22.2999992371,12.9200000763
"2004-05-06 16:00:00",20.8799991608,0.0,102.199996948,9.13000011444,8.71000003815,21.2000007629,12.8199996948
"2004-05-06 17:00:00",20.5699996948,0.0,94.1999969482,8.47000026703,8.88000011444,22.8999996185,12.8000001907
"2004-05-06 18:00:00",20.0799999237,0.0,90.9000015259,8.26000022888,8.93999958038,22.3999996185,12.6999998093
"2004-05-06 19:00:00",19.4300003052,0.0,88.5,8.14000034332,8.55000019073,24.2000007629,12.6599998474
"2004-05-06 20:00:00",18.8500003815,0.0,88.1999969482,8.19999980927,8.63000011444,26.5,12.6400003433
"2004-05-06 21:00:00",18.4699993134,0.0,87.5999984741,8.22000026703,8.75,24.8999996185,12.6199998856
"2004-05-06 22:00:00",17.8500003815,0.0,87.0,8.26000022888,8.90999984741,24.7999992371,12.5900001526
"2004-05-06 23:00:00",17.7000007629,0.0,87.6999969482,8.35000038147,9.10000038147,24.2999992371,12.5699996948
"2004-05-07 00:00:00",17.3700008392,0.0,88.1999969482,8.44999980927,9.19999980927,23.6000003815,12.5600004196
"2004-05-07 01:00:00",17.0,0.0,88.0999984741,8.51000022888,9.21000003815,22.2999992371,12.5399999619
"2004-05-07 02:00:00",16.8600006104,0.0,88.6999969482,8.59000015259,9.25,21.5,12.5200004578
"2004-05-07 03:00:00",16.5599994659,0.0,85.9000015259,8.38000011444,9.10000038147,20.3999996185,12.5100002289
"2004-05-07 04:00:00",16.5100002289,0.0,88.8000030518,8.67000007629,8.69999980927,21.2999992371,12.4899997711
"2004-05-07 05:00:00",15.8000001907,0.0,88.3000030518,8.75,8.93000030518,31.7999992371,12.4799995422
"2004-05-07 06:00:00",15.2899999619,0.0,88.9000015259,8.90999984741,9.14000034332,19.2999992371,12.4600000381
"2004-05-07 07:00:00",15.3699998856,0.0,89.1999969482,8.92000007629,9.26000022888,29.7000007629,12.4600000381
"2004-05-07 08:00:00",15.9799995422,0.0,90.5999984741,8.94999980927,9.11999988556,17.7999992371,12.4499998093
"2004-05-07 09:00:00",16.4899997711,0.0,90.9000015259,8.88000011444,8.86999988556,18.2999992371,12.5100002289
"2004-05-07 10:00:00",18.75,0.0,92.6999969482,8.64000034332,8.82999992371,18.2000007629,12.9799995422
"2004-05-07 11:00:00",19.7800006866,0.0,99.8000030518,9.10999965668,9.14999961853,26.2999992371,13.1199998856
"2004-05-07 12:00:00",24.1499996185,0.0,114.900001526,9.64999961853,8.97000026703,18.5,13.029999733
"2004-05-07 13:00:00",22.9799995422,0.0,116.0,9.96000003815,8.82999992371,18.2000007629,13.0
"2004-05-07 14:00:00",23.1399993896,0.0,108.900001526,9.31999969482,8.93999958038,18.0,12.9799995422
"2004-05-07 15:00:00",24.3400001526,0.0,115.0,9.61999988556,8.65999984741,19.2000007629,12.9200000763
"2004-05-07 16:00:00",23.2099990845,0.0,103.800003052,8.86999988556,7.73999977112,18.6000003815,12.8000001907
"2004-05-07 17:00:00",22.3600006104,0.0,98.4000015259,8.55000019073,7.55000019073,18.7000007629,12.779999733
"2004-05-07 18:00:00",21.7199993134,0.0,90.5,7.94999980927,7.55999994278,19.1000003815,12.6800003052
"2004-05-07 19:00:00",20.5699996948,0.0,87.5,7.86999988556,8.81000041962,24.5,12.6599998474
"2004-05-07 20:00:00",20.0100002289,0.0,87.6999969482,7.96999979019,8.84000015259,18.3999996185,12.6400003433
"2004-05-07 21:00:00",19.75,0.0,86.5,7.90999984741,8.84000015259,19.7000007629,12.6199998856
"2004-05-07 22:00:00",19.3799991608,0.0,85.5999984741,7.88000011444,8.89999961853,28.8999996185,12.5900001526
"2004-05-07 23:00:00",18.7900009155,0.0,84.8000030518,7.90999984741,9.11999988556,39.4000015259,12.5799999237
"2004-05-08 00:00:00",18.1599998474,0.0,85.1999969482,8.03999996185,9.18999958038,43.7999992371,12.5600004196
"2004-05-08 01:00:00",18.1800003052,0.0,83.9000015259,7.90999984741,9.25,42.9000015259,12.5399999619
"2004-05-08 02:00:00",17.7299995422,0.0,86.0999984741,8.19999980927,9.31000041962,46.5,12.5200004578
"2004-05-08 03:00:00",17.5200004578,0.0,85.3000030518,8.15999984741,9.36999988556,43.0,12.5
"2004-05-08 04:00:00",17.3899993896,0.0,88.4000015259,8.47999954224,9.39999961853,43.7999992371,12.4899997711
"2004-05-08 05:00:00",17.4099998474,0.0,87.5,8.39000034332,9.44999980927,42.0,12.470000267
"2004-05-08 06:00:00",17.2099990845,0.0,87.3000030518,8.40999984741,9.47999954224,40.2999992371,12.470000267
"2004-05-08 07:00:00",17.4899997711,0.0,88.5999984741,8.47999954224,9.34000015259,36.7999992371,12.470000267
"2004-05-08 08:00:00",17.5599994659,0.0,90.4000015259,8.64000034332,9.30000019073,30.1000003815,12.470000267
"2004-05-08 09:00:00",17.8999996185,0.0,92.6999969482,8.78999996185,9.07999992371,28.1000003815,12.5100002289
"2004-05-08 10:00:00",18.8999996185,0.0,97.5,9.06000041962,8.61999988556,24.7000007629,13.220000267
"2004-05-08 11:00:00",20.1599998474,0.0,101.800003052,9.22999954224,8.43999958038,21.0,13.1199998856
"2004-05-08 12:00:00",23.7700004578,0.0,119.599998474,10.1199998856,7.71000003815,20.8999996185,13.0699996948
"2004-05-08 13:00:00",23.4699993134,0.0,133.399993896,11.3400001526,7.26999998093,19.1000003815,13.0500001907
"2004-05-08 14:00:00",22.9599990845,0.0,106.699996948,9.15999984741,7.15000009537,19.0,13.0500001907
"2004-05-08 15:00:00",23.1200008392,0.0,116.5,9.97000026703,7.09999990463,19.2999992371,13.0399999619
"2004-05-08 16:00:00",22.2999992371,0.0,104.099998474,9.05000019073,7.17000007629,19.6000003815,12.8800001144
"2004-05-08 17:00:00",21.8299999237,0.0,98.5,8.64999961853,7.17000007629,17.3999996185,12.8000001907
"2004-05-08 18:00:00",21.2800006866,0.0,93.5999984741,8.30000019073,7.36000013351,19.6000003815,12.720000267
"2004-05-08 19:00:00",20.7099990845,0.0,91.9000015259,8.23999977112,7.23000001907,16.8999996185,12.6499996185
"2004-05-08 20:00:00",20.2199993134,0.0,91.4000015259,8.27999973297,7.30000019073,16.2999992371,12.6300001144
"2004-05-08 21:00:00",19.5499992371,0.0,89.5,8.21000003815,7.42999982834,16.7000007629,12.6199998856
"2004-05-08 22:00:00",18.8099994659,0.0,87.6999969482,8.17000007629,7.51000022888,16.6000003815,12.5900001526
"2004-05-08 23:00:00",18.4099998474,0.0,88.1999969482,8.27999973297,7.61999988556,16.7999992371,12.5799999237
"2004-05-09 00:00:00",18.1700000763,0.0,87.9000015259,8.28999996185,7.73999977112,17.8999996185,12.5600004196
"2004-05-09 01:00:00",17.9599990845,0.0,87.5999984741,8.30000019073,7.82999992371,42.2999992371,12.5500001907
"2004-05-09 02:00:00",18.2000007629,0.0,86.9000015259,8.18999958038,7.90999984741,15.6999998093,12.5399999619
"2004-05-09 03:00:00",18.2600002289,0.0,85.8000030518,8.07999992371,7.96999979019,16.3999996185,12.5200004578
"2004-05-09 04:00:00",17.8199996948,0.0,84.5999984741,8.03999996185,7.98000001907,24.0,12.5
"2004-05-09 05:00:00",17.9500007629,0.0,85.5999984741,8.10999965668,8.06999969482,16.2999992371,12.4899997711
"2004-05-09 06:00:00",17.9200000763,0.0,85.5,8.10999965668,8.60000038147,16.7000007629,12.4799995422
"2004-05-09 07:00:00",17.9200000763,0.0,88.4000015259,8.38000011444,8.51000022888,16.1000003815,12.470000267
"2004-05-09 08:00:00",18.1900005341,0.0,95.8000030518,9.03999996185,8.43999958038,15.3999996185,12.4899997711
"2004-05-09 09:00:00",18.7199993134,0.0,98.9000015259,9.22999954224,8.36999988556,15.5,12.75
"2004-05-09 10:00:00",19.2800006866,0.0,99.0,9.13000011444,8.27999973297,15.3999996185,12.9300003052
"2004-05-09 11:00:00",20.7299995422,0.0,112.599998474,10.0900001526,8.27000045776,14.6999998093,13.1499996185
"2004-05-09 12:00:00",23.5699996948,0.0,95.5,8.10000038147,7.82999992371,15.3000001907,13.1000003815
"2004-05-09 13:00:00",23.8899993896,0.0,96.1999969482,8.11999988556,7.42999982834,14.6999998093,13.0600004196
"2004-05-09 14:00:00",24.8099994659,0.0,96.0,7.96000003815,7.32999992371,14.1000003815,12.8599996567
"2004-05-09 15:00:00",24.2999992371,0.0,96.0999984741,8.05000019073,7.09000015259,14.0,12.8800001144
"2004-05-09 16:00:00",23.5900001526,0.0,119.099998474,10.1000003815,7.34000015259,22.1000003815,12.8299999237
"2004-05-09 17:00:00",23.0400009155,0.0,105.800003052,9.06999969482,7.30999994278,15.1000003815,12.7899999619
"2004-05-09 18:00:00",22.3400001526,0.0,98.5999984741,8.56000041962,7.28999996185,19.7999992371,12.6800003052